Chamberlain, SD

1:15 PM CST on December 14, 2017 (GMT -0600)
Chamberlain

Weather History for K9V9 - November, 2013

Change the Weather History Date:

Friday, November 1, 2013

  Actual Average Record
Temperature  
Mean Temperature 44 °F -  
Max Temperature 53 °F 49 °F 69 °F (2008)
Min Temperature 35 °F 28 °F 10 °F (2002)
Degree Days  
Heating Degree Days 22    
Moisture  
Dew Point 35 °F    
Average Humidity 70    
Maximum Humidity 82    
Minimum Humidity 54    
Precipitation  
Precipitation 0.04 in - - ()
Sea Level Pressure  
Sea Level Pressure 29.87 in    
Wind  
Wind Speed 12 mph (NW)    
Max Wind Speed 26 mph    
Max Gust Speed 36 mph    
Averages and records for this station are not official NWS values.
T = Trace of Precipitation, MM = Missing Value Source: NWS Daily Summary

Daily Weather History Graph

Daily Weather History Graph

Search for Another Location

Airport or City:

Trip Planner

Search our weather history database for the weather conditions in past years. The results will help you decide how hot, cold, wet, or windy it might be!

Date:

Astronomy

Nov. 01, 2013 Rise Set
Actual Time 8:13 AM CDT 6:27 PM CDT
Civil Twilight 7:43 AM CDT 6:57 PM CDT
Nautical Twilight 7:09 AM CDT 7:31 PM CDT
Astronomical Twilight 6:36 AM CDT 8:04 PM CDT
Moon 6:04 AM CDT (11/1) 5:23 PM CDT (11/1)
Length of Visible Light 11h 13m
Length of Day
10h 13m
Waning Crescent, 4% of the Moon is Illuminated
Nov 1
Waning Crescent
Nov 3
New
Nov 9
First Quarter
Nov 17
Full
Nov 25
Last Quarter

Hourly Weather History & Observations

Time (CDT) Temp. Windchill Dew Point Humidity Pressure Visibility Wind Dir Wind Speed Gust Speed Precip Events Conditions
12:52 AM 41.0 °F 35.8 °F 36.0 °F 82% 29.64 in - NW 8.1 mph - N/A   Unknown
1:52 AM 44.1 °F 39.5 °F 36.0 °F 73% 29.65 in - WNW 8.1 mph - N/A   Unknown
2:52 AM 44.1 °F 39.5 °F 36.0 °F 73% 29.67 in - West 8.1 mph - N/A   Unknown
3:52 AM 45.0 °F 39.3 °F 37.0 °F 74% 29.69 in - WNW 11.5 mph - N/A   Unknown
4:52 AM 46.0 °F 40.6 °F 37.0 °F 71% 29.71 in - NW 11.5 mph 19.6 mph N/A   Unknown
5:52 AM 45.0 °F 38.9 °F 36.0 °F 71% 29.73 in - NW 12.7 mph 19.6 mph N/A   Unknown
6:52 AM 45.0 °F 38.5 °F 36.0 °F 71% 29.76 in - NW 13.8 mph - N/A   Unknown
7:52 AM 43.0 °F 35.4 °F 36.0 °F 76% 29.79 in - WNW 16.1 mph 26.5 mph N/A   Unknown
8:52 AM 44.1 °F 37.4 °F 36.0 °F 73% 29.81 in - WNW 13.8 mph 24.2 mph N/A   Unknown
9:52 AM 46.9 °F - 36.0 °F 66% 29.83 in - NW 17.3 mph 24.2 mph N/A   Unknown
10:52 AM 48.9 °F - 35.1 °F 59% 29.83 in - NW 19.6 mph 29.9 mph N/A   Unknown
11:52 AM 51.1 °F - 35.1 °F 54% 29.83 in - NW 25.3 mph 35.7 mph N/A   Unknown
12:52 PM 50.0 °F - 35.1 °F 57% 29.84 in - NW 26.5 mph 35.7 mph N/A   Unknown
1:52 PM 45.0 °F 39.3 °F 39.0 °F 80% 29.87 in - NW 11.5 mph 21.9 mph 0.04 in   Unknown
2:52 PM 46.9 °F - 37.9 °F 71% 29.88 in - NW 20.7 mph 31.1 mph N/A   Unknown
3:52 PM 45.0 °F 37.1 °F 37.9 °F 76% 29.92 in - NW 19.6 mph 34.5 mph N/A   Unknown
4:52 PM 46.0 °F 38.5 °F 36.0 °F 68% 29.95 in - NW 19.6 mph 27.6 mph N/A   Unknown
5:52 PM 46.0 °F 39.0 °F 34.0 °F 63% 29.99 in - NNW 17.3 mph 25.3 mph N/A   Unknown
6:52 PM 46.0 °F 39.6 °F 33.1 °F 61% 30.01 in - NNW 15.0 mph 24.2 mph N/A   Unknown
7:52 PM 44.1 °F 39.5 °F 34.0 °F 68% 30.04 in - NNW 8.1 mph - N/A   Unknown
8:52 PM 39.9 °F 35.8 °F 32.0 °F 73% 30.06 in - NW 5.8 mph - N/A   Unknown
9:52 PM 39.0 °F 34.8 °F 30.0 °F 70% 30.07 in - NW 5.8 mph - N/A   Unknown
10:52 PM 36.0 °F 33.3 °F 30.0 °F 79% 30.09 in - West 3.5 mph - N/A   Unknown
11:52 PM 35.1 °F 30.1 °F 28.9 °F 78% 30.10 in - WNW 5.8 mph - N/A   Unknown